User: anonymous   Login
Location: Caltech
(34.1382°N, 118.1253°W)
Time: 13:47:46
(UTC-07:00)
Language:

SL-16 R/B - Orbit

View from above orbital plane
View from above orbital plane
View from above satellite
View from above satellite

Ground track
Ground track

The orbit data is extracted from the following two-line orbital elements,

1 31793U 07029B   17207.84606304 +.00000187 +00000-0 +12272-3 0  9992
2 31793 070.9759 305.8586 0001582 267.7643 231.3340 14.14379596520280
Epoch (UTC): 26 July 2017 20:18:19
Eccentricity: 0.0001582
inclination: 70.9759°
perigee height: 843 km
apogee height: 845 km
right ascension of ascending node: 305.8586°
argument of perigee: 267.7643°
revolutions per day: 14.14379596
mean anomaly at epoch: 231.3340°
orbit number at epoch: 52028

The dashed part of the orbit path shows where the satellite is in the earth's shadow,  

DLR